| 
				
				
				
					
						
					 | 
				
				
				
					
					
					Asteroid 2014 SX141
					
					
					
					
						
					
					
						
							(Preview)
						
						
						
						
							
						
							
								The 80 - 180 metre wide asteroid 2014 SX141 will make a close pass (73.4 lunar distances, 0.1887 AU) travelling at 4.11 km/second, to the Earth-Moon system on the 24th October 2014 @ 18:32 UT ±00:55.  See more The Lunar Distance (LD), the distance between Earth and the Moon, equals 384,401 km, (or 0.00...  
							 
							
						 
						
					
				 | 
				
					
						Blobrana
					 | 
				
				
					
						0
					 | 
				
				
				
					
						
					 | 
				
				
					
						
					 | 
				
			
		
			
			
				
				
					
						 
					 | 
				
				
				
					
						
					 | 
				
				
				
					
					
					Asteroid 2014 UA8
					
					
					
					
						
					
					
						
							(Preview)
						
						
						
						
							
						
							
								The 23 - 51 metre wide asteroid 2014 UA8 will make a close pass (8.1 lunar distances, 0.0208 AU) travelling at 12.27 km/second, to the Earth-Moon system on the 23rd October 2014 @ 17:07 UT ±00:01.  See more The Lunar Distance (LD), the distance between Earth and the Moon, equals 384,401 km, (or 0.00256...  
							 
							
						 
						
					
				 | 
				
					
						Blobrana
					 | 
				
				
					
						0
					 | 
				
				
				
					
						
					 | 
				
				
					
						
					 | 
				
			
		
			
			
				
				
					
						 
					 | 
				
				
				
					
						
					 | 
				
				
				
					
					
					Asteroid 2014 TP57
					
					
					
					
						
					
					
						
							(Preview)
						
						
						
						
							
						
							
								The 14 - 31 metre wide asteroid 2014 TP57 will make a close pass (8.2 lunar distances, 0.0211 AU) travelling at 5.72 km/second, to the Earth-Moon system on the 22nd October 2014 @ 16:34 UT ±00:01.  See more The Lunar Distance (LD), the distance between Earth and the Moon, equals 384,401 km, (or 0.00256...  
							 
							
						 
						
					
				 | 
				
					
						Blobrana
					 | 
				
				
					
						0
					 | 
				
				
				
					
						
					 | 
				
				
					
						
					 | 
				
			
		
			
			
				
				
					
						 
					 | 
				
				
				
					
						
					 | 
				
				
				
					
					
					Asteroid 2014 RQ17
					
					
					
					
						
					
					
						
							(Preview)
						
						
						
						
							
						
							
								The 92 - 210 metre wide asteroid 2014 RQ17 will make a close pass (11.9 lunar distances, 0.0305 AU) travelling at 6.40 km/second, to the Earth-Moon system on the 22nd October 2014 @ 06:17 UT ±00:01.  See more The Lunar Distance (LD), the distance between Earth and the Moon, equals 384,401 km, (or 0.002...  
							 
							
						 
						
					
				 | 
				
					
						Blobrana
					 | 
				
				
					
						0
					 | 
				
				
				
					
						
					 | 
				
				
					
						
					 | 
				
			
		
			
			
				
				
					
						 
					 | 
				
				
				
					
						
					 | 
				
				
				
					
					
					Asteroid 2014 TT35
					
					
					
					
						
					
					
						
							(Preview)
						
						
						
						
							
						
							
								The 16 - 37 metre wide asteroid 2014 TT35 will make a close pass (6.9 lunar distances, 0.0177 AU) travelling at 10.68 km/second, to the Earth-Moon system on the 22nd October 2014 @ 02:07 UT ±00:01.  See more The Lunar Distance (LD), the distance between Earth and the Moon, equals 384,401 km, (or 0.0025...  
							 
							
						 
						
					
				 | 
				
					
						Blobrana
					 | 
				
				
					
						0
					 | 
				
				
				
					
						
					 | 
				
				
					
						
					 | 
				
			
		
			
			
				
				
					
						 
					 | 
				
				
				
					
						
					 | 
				
				
				
					
					
					Asteroid (2340) Hathor 1976 UA
					
					
					
					
						
					
					
						
							(Preview)
						
						
						
						
							
						
							
								The 300 metre wide asteroid (2340) Hathor will make a close pass (18.8 lunar distances, 0.0482 AU) travelling at 11.91 km/second, to the Earth-Moon system on the 21st October 2014 @ 21:28 UT ±00:01.  See more The Lunar Distance (LD), the distance between Earth and the Moon, equals 384,401 km, (or 0.0...  
							 
							
						 
						
					
				 | 
				
					
						Blobrana
					 | 
				
				
					
						0
					 | 
				
				
				
					
						
					 | 
				
				
					
						
					 | 
				
			
		
			
			
				
				
					
						 
					 | 
				
				
				
					
						
					 | 
				
				
				
					
					
					Asteroid 2010 VQ
					
					
					
					
						
					
					
						
							(Preview)
						
						
						
						
							
						
							
								The 8 - 17 metre wide asteroid 2010 VQ will make a close pass (10.6 lunar distances, 0.0271 AU) travelling at 3.98 km/second, to the Earth-Moon system on the 21st October 2014 @ 19:16 UT ±2 days 16:56.  See more The Lunar Distance (LD), the distance between Earth and the Moon, equals 384,401 km, (or 0.00...  
							 
							
						 
						
					
				 | 
				
					
						Blobrana
					 | 
				
				
					
						0
					 | 
				
				
				
					
						
					 | 
				
				
					
						
					 | 
				
			
		
			
			
				
				
					
						 
					 | 
				
				
				
					
						
					 | 
				
				
				
					
					
					Asteroid 2007 CX50
					
					
					
					
						
					
					
						
							(Preview)
						
						
						
						
							
						
							
								The 31 - 68 metre wide asteroid 2007 CX50 will make a close pass (50.3 lunar distances, 0.1293 AU) travelling at 6.18 km/second, to the Earth-Moon system on the 20th October 2014 @ 20:51 UT ±17:11.  See more The Lunar Distance (LD), the distance between Earth and the Moon, equals 384,401 km, (or 0.0025...  
							 
							
						 
						
					
				 | 
				
					
						Blobrana
					 | 
				
				
					
						0
					 | 
				
				
				
					
						
					 | 
				
				
					
						
					 | 
				
			
		
			
			
				
				
					
						 
					 | 
				
				
				
					
						
					 | 
				
				
				
					
					
					Asteroid 2014 SM143
					
					
					
					
						
					
					
						
							(Preview)
						
						
						
						
							
						
							
								Orbital elements:
2014 SM143                                          PHA, Earth MOID = 0.0054 AU
Epoch 2014 Dec. 9.0 TT = JDT 2457000.5                  MPC
M 353.88242              (2000.0)            P               Q
n   0.74192771     Peri.   89.48790     -0.43222020     -0.87963170
a   1.2084490      Node    28.86809     +0.57268398     -0.43785457
e   0.4242464      Incl.   24.28729     +0.69657646     -0.18582639
P   1.33           H   1... 
							 
							
						 
						
					
				 | 
				
					
						Blobrana
					 | 
				
				
					
						1
					 | 
				
				
				
					
						
					 | 
				
				
					
						
					 | 
				
			
		
			
			
				
				
					
						 
					 | 
				
				
				
					
						
					 | 
				
				
				
					
					
					Asteroid 2014 TG17
					
					
					
					
						
					
					
						
							(Preview)
						
						
						
						
							
						
							
								The 92 - 210 metre wide asteroid 2014 TG17 will make a close pass (61.1 lunar distances, 0.1569 AU) travelling at 10.29 km/second, to the Earth-Moon system on the 20th October 2014 @ 08:25 UT ±00:01.  See more The Lunar Distance (LD), the distance between Earth and the Moon, equals 384,401 km, (or 0.00...  
							 
							
						 
						
					
				 | 
				
					
						Blobrana
					 | 
				
				
					
						0
					 | 
				
				
				
					
						
					 | 
				
				
					
						
					 | 
				
			
		
			
			
				
				
					
						 
					 | 
				
				
				
					
						
					 | 
				
				
				
					
					
					Asteroid 2014 SM261
					
					
					
					
						
					
					
						
							(Preview)
						
						
						
						
							
						
							
								The 150 - 340 metre wide asteroid 2014 SM261 will make a close pass (72.7 lunar distances, 0.1868 AU) travelling at 8.34 km/second, to the Earth-Moon system on the 20th October 2014 @ 05:15 UT ±00:02.  See more The Lunar Distance (LD), the distance between Earth and the Moon, equals 384,401 km, (or 0.0...  
							 
							
						 
						
					
				 | 
				
					
						Blobrana
					 | 
				
				
					
						0
					 | 
				
				
				
					
						
					 | 
				
				
					
						
					 | 
				
			
		
			
			
				
				
					
						 
					 | 
				
				
				
					
						
					 | 
				
				
				
					
					
					Asteroid 2014 UT
					
					
					
					
						
					
					
						
							(Preview)
						
						
						
						
							
						
							
								The 58 - 130 metre wide asteroid 2014 UT made a close pass (27.9 lunar distances, 0.0718 AU) travelling at 11.60 km/second, to the Earth-Moon system on the 16th October 2014 @ 23:44 UT ±00:07.  See more The Lunar Distance (LD), the distance between Earth and the Moon, equals 384,401 km, (or 0.00256 AU)... 
							 
							
						 
						
					
				 | 
				
					
						Blobrana
					 | 
				
				
					
						0
					 | 
				
				
				
					
						
					 | 
				
				
					
						
					 | 
				
			
		
			
			
				
				
					
						 
					 | 
				
				
				
					
						
					 | 
				
				
				
					
					
					Asteroid 2014 TN17
					
					
					
					
						
					
					
						
							(Preview)
						
						
						
						
							
						
							
								Orbital elements:
2014 TN17                                           PHA, Earth MOID = 0.0122 AU
Epoch 2014 Dec. 9.0 TT = JDT 2457000.5                  MPC
M   0.72357              (2000.0)            P               Q
n   0.30452151     Peri.  105.31710     -0.28869056     -0.95739477
a   2.1880508      Node     1.52123     +0.73901931     -0.22766372
e   0.6905052      Incl.   15.91686     +0.60869386     -0.17766395
P   3.24           H   21.5... 
							 
							
						 
						
					
				 | 
				
					
						Blobrana
					 | 
				
				
					
						1
					 | 
				
				
				
					
						
					 | 
				
				
					
						
					 | 
				
			
		
			
			
				
				
					
						 
					 | 
				
				
				
					
						
					 | 
				
				
				
					
					
					Asteroid 2014 SU1
					
					
					
					
						
					
					
						
							(Preview)
						
						
						
						
							
						
							
								The 24 - 54 metre wide asteroid 2014 SU1 will make a close pass (13.7 lunar distances, 0.0352 AU) travelling at 2.98 km/second, to the Earth-Moon system on the 18th October 2014 @ 00:24 UT ±00:03.  See more The Lunar Distance (LD), the distance between Earth and the Moon, equals 384,401 km, (or 0.00256...  
							 
							
						 
						
					
				 | 
				
					
						Blobrana
					 | 
				
				
					
						0
					 | 
				
				
				
					
						
					 | 
				
				
					
						
					 | 
				
			
		
			
			
				
				
					
						 
					 | 
				
				
				
					
						
					 | 
				
				
				
					
					
					Asteroid 2014 GA
					
					
					
					
						
					
					
						
							(Preview)
						
						
						
						
							
						
							
								The 14 - 31 metre wide asteroid 2014 GA will make a close pass (58.9 lunar distances, 0.1514 AU) travelling at 5.15 km/second, to the Earth-Moon system on the 18th October 2014 @ 09:29 UT ±00:17.  See more The Lunar Distance (LD), the distance between Earth and the Moon, equals 384,401 km, (or 0.00256 A... 
							 
							
						 
						
					
				 | 
				
					
						Blobrana
					 | 
				
				
					
						0
					 | 
				
				
				
					
						
					 | 
				
				
					
						
					 |